Powrót do katalogu

YAOGAN-39 01A

AktywnyMilitariaVLEO
NORAD 57727·PAYLOAD·🇨🇳 China

Wystrzelony Aug 31, 2023 z Xichang Satellite Launch Center

Loading…

Następne Przeloty (najbliższe 24 godziny)

TLE

ŚwieżeSource: Space-Track

Epoka: Sep 14, 2026, 13:12 UTC

1 57727U 23130A   26257.55012575  .00006237  00000-0  26072-3 0  9997
2 57727  35.0035 286.7582 0003569 226.7778 133.2639 15.22929557169343

Śledź YAOGAN-39 01A w czasie rzeczywistym z AllMySat

Download on the App Store